Time,TemperatureF,DewpointF,PressureIn,WindDirection,WindDirectionDegrees,WindSpeedMPH,WindSpeedGustMPH,Humidity,HourlyPrecipIn,Conditions,Clouds,dailyrainin,SoftwareType,DateUTC
2013-07-06 00:02:00,71.6,64.4,29.95,SE,135,5.0,8.0,78,0.00,,,0.00,meteohub,2013-07-06 05:02:00,
2013-07-06 00:07:00,71.4,64.6,29.95,South,180,4.0,8.0,79,0.00,,,0.00,meteohub,2013-07-06 05:07:00,
2013-07-06 00:12:00,71.2,64.8,29.95,SE,135,4.0,8.0,80,0.00,,,0.00,meteohub,2013-07-06 05:12:00,
2013-07-06 00:17:00,71.2,64.8,29.95,South,180,5.0,6.0,80,0.00,,,0.00,meteohub,2013-07-06 05:17:00,
2013-07-06 00:22:00,71.2,64.8,29.96,SE,135,4.0,7.0,80,0.00,,,0.00,meteohub,2013-07-06 05:22:00,
2013-07-06 00:27:00,71.2,64.8,29.96,SW,225,4.0,10.0,80,0.00,,,0.00,meteohub,2013-07-06 05:27:00,
2013-07-06 00:32:00,71.2,64.4,29.96,East,90,6.0,10.0,79,0.00,,,0.00,meteohub,2013-07-06 05:32:00,
2013-07-06 00:37:00,71.2,64.4,29.96,SE,135,4.0,10.0,79,0.00,,,0.00,meteohub,2013-07-06 05:37:00,
2013-07-06 00:42:00,71.2,64.4,29.96,SE,135,5.0,8.0,79,0.00,,,0.00,meteohub,2013-07-06 05:42:00,
2013-07-06 00:47:00,71.1,64.2,29.96,SE,135,6.0,8.0,79,0.00,,,0.00,meteohub,2013-07-06 05:47:00,
2013-07-06 00:52:00,70.9,64.0,29.96,SE,135,4.0,8.0,79,0.00,,,0.00,meteohub,2013-07-06 05:52:00,
2013-07-06 00:57:00,70.9,64.0,29.96,South,180,6.0,8.0,79,0.00,,,0.00,meteohub,2013-07-06 05:57:00,
2013-07-06 01:02:00,70.9,64.0,29.96,SE,135,7.0,7.0,79,0.00,,,0.00,meteohub,2013-07-06 06:02:00,
2013-07-06 01:07:00,71.2,64.4,29.96,SE,135,8.0,8.0,79,0.00,,,0.00,meteohub,2013-07-06 06:07:00,
2013-07-06 01:12:00,71.2,64.0,29.96,SE,135,6.0,8.0,78,0.00,,,0.00,meteohub,2013-07-06 06:12:00,
2013-07-06 01:17:00,71.2,64.0,29.96,SE,135,4.0,8.0,78,0.00,,,0.00,meteohub,2013-07-06 06:17:00,
2013-07-06 01:22:00,70.9,63.7,29.96,SW,225,4.0,8.0,78,0.00,,,0.00,meteohub,2013-07-06 06:22:00,
2013-07-06 01:27:00,70.7,63.5,29.96,SE,135,7.0,8.0,78,0.00,,,0.00,meteohub,2013-07-06 06:27:00,
2013-07-06 01:32:00,70.5,63.7,29.96,SE,135,5.0,7.0,79,0.00,,,0.00,meteohub,2013-07-06 06:32:00,
2013-07-06 01:37:00,70.5,63.7,29.96,SE,135,5.0,8.0,79,0.00,,,0.00,meteohub,2013-07-06 06:37:00,
2013-07-06 01:42:00,70.5,63.7,29.96,SE,135,10.0,10.0,79,0.00,,,0.00,meteohub,2013-07-06 06:42:00,
2013-07-06 01:47:00,70.7,63.9,29.95,East,90,5.0,10.0,79,0.00,,,0.00,meteohub,2013-07-06 06:47:00,
2013-07-06 01:52:00,70.5,63.7,29.96,SE,135,4.0,10.0,79,0.00,,,0.00,meteohub,2013-07-06 06:52:00,
2013-07-06 01:57:00,70.3,63.5,29.96,SE,135,5.0,10.0,79,0.00,,,0.00,meteohub,2013-07-06 06:57:00,
2013-07-06 02:02:00,70.2,63.3,29.95,SE,135,6.0,8.0,79,0.00,,,0.00,meteohub,2013-07-06 07:02:00,
2013-07-06 02:07:00,70.2,63.3,29.96,SE,135,8.0,8.0,79,0.00,,,0.00,meteohub,2013-07-06 07:07:00,
2013-07-06 02:12:00,70.2,63.3,29.96,East,90,4.0,8.0,79,0.00,,,0.00,meteohub,2013-07-06 07:12:00,
2013-07-06 02:17:00,70.2,63.3,29.96,SE,135,3.0,8.0,79,0.00,,,0.00,meteohub,2013-07-06 07:17:00,
2013-07-06 02:22:00,70.0,63.1,29.96,SE,135,4.0,8.0,79,0.00,,,0.00,meteohub,2013-07-06 07:22:00,
2013-07-06 02:27:00,69.8,63.3,29.96,South,180,4.0,5.0,80,0.00,,,0.00,meteohub,2013-07-06 07:27:00,
2013-07-06 02:32:00,69.8,63.3,29.96,SE,135,4.0,6.0,80,0.00,,,0.00,meteohub,2013-07-06 07:32:00,
2013-07-06 02:37:00,69.8,63.3,29.96,SE,135,6.0,6.0,80,0.00,,,0.00,meteohub,2013-07-06 07:37:00,
2013-07-06 02:42:00,69.6,63.5,29.96,SE,135,4.0,6.0,81,0.00,,,0.00,meteohub,2013-07-06 07:42:00,
2013-07-06 02:47:00,69.4,63.3,29.96,South,180,6.0,7.0,81,0.00,,,0.00,meteohub,2013-07-06 07:47:00,
2013-07-06 02:52:00,69.3,63.5,29.96,SE,135,4.0,7.0,82,0.00,,,0.00,meteohub,2013-07-06 07:52:00,
2013-07-06 02:57:00,69.3,63.5,29.96,SE,135,7.0,7.0,82,0.00,,,0.00,meteohub,2013-07-06 07:57:00,
2013-07-06 03:02:00,69.1,63.3,29.96,East,90,6.0,8.0,82,0.00,,,0.00,meteohub,2013-07-06 08:02:00,
2013-07-06 03:07:00,69.1,63.3,29.96,SE,135,4.0,8.0,82,0.00,,,0.00,meteohub,2013-07-06 08:07:00,
2013-07-06 03:12:00,69.1,63.3,29.96,SE,135,4.0,8.0,82,0.00,,,0.00,meteohub,2013-07-06 08:12:00,
2013-07-06 03:17:00,68.9,63.1,29.96,East,90,4.0,6.0,82,0.00,,,0.00,meteohub,2013-07-06 08:17:00,
2013-07-06 03:22:00,68.9,63.1,29.96,East,90,4.0,6.0,82,0.00,,,0.00,meteohub,2013-07-06 08:22:00,
2013-07-06 03:27:00,68.9,63.5,29.96,South,180,4.0,4.0,83,0.00,,,0.00,meteohub,2013-07-06 08:27:00,
2013-07-06 03:32:00,68.7,63.3,29.96,SE,135,3.0,5.0,83,0.00,,,0.00,meteohub,2013-07-06 08:32:00,
2013-07-06 03:37:00,68.7,63.3,29.96,SE,135,4.0,5.0,83,0.00,,,0.00,meteohub,2013-07-06 08:37:00,
2013-07-06 03:42:00,68.7,63.3,29.96,SW,225,4.0,5.0,83,0.00,,,0.00,meteohub,2013-07-06 08:42:00,
2013-07-06 03:47:00,68.7,63.3,29.96,SE,135,9.0,9.0,83,0.00,,,0.00,meteohub,2013-07-06 08:47:00,
2013-07-06 03:52:00,68.7,63.3,29.96,SE,135,6.0,9.0,83,0.00,,,0.00,meteohub,2013-07-06 08:52:00,
2013-07-06 03:57:00,68.5,63.1,29.96,East,90,4.0,9.0,83,0.00,,,0.00,meteohub,2013-07-06 08:57:00,
2013-07-06 04:02:00,68.5,63.1,29.96,SE,135,4.0,9.0,83,0.00,,,0.00,meteohub,2013-07-06 09:02:00,
2013-07-06 04:07:00,68.4,63.0,29.96,SE,135,8.0,8.0,83,0.00,,,0.00,meteohub,2013-07-06 09:07:00,
2013-07-06 04:13:00,68.0,63.0,29.96,SE,135,8.0,8.0,84,0.00,,,0.00,meteohub,2013-07-06 09:13:00,
2013-07-06 04:18:00,67.8,63.5,29.96,SE,135,6.0,8.0,86,0.00,,,0.00,meteohub,2013-07-06 09:18:00,
2013-07-06 04:23:00,67.6,63.3,29.96,SE,135,4.0,8.0,86,0.00,,,0.00,meteohub,2013-07-06 09:23:00,
2013-07-06 04:28:00,67.5,63.5,29.96,South,180,6.0,8.0,87,0.00,,,0.00,meteohub,2013-07-06 09:28:00,
2013-07-06 04:33:00,67.6,63.7,29.96,SE,135,6.0,8.0,87,0.00,,,0.00,meteohub,2013-07-06 09:33:00,
2013-07-06 04:38:00,67.5,63.5,29.96,South,180,4.0,8.0,87,0.00,,,0.00,meteohub,2013-07-06 09:38:00,
2013-07-06 04:43:00,67.5,63.5,29.97,SE,135,5.0,8.0,87,0.00,,,0.00,meteohub,2013-07-06 09:43:00,
2013-07-06 04:48:00,67.5,63.5,29.96,SE,135,5.0,8.0,87,0.00,,,0.00,meteohub,2013-07-06 09:48:00,
2013-07-06 04:53:00,67.6,63.7,29.96,SE,135,7.0,8.0,87,0.00,,,0.00,meteohub,2013-07-06 09:53:00,
2013-07-06 04:58:00,67.6,63.7,29.96,SE,135,4.0,10.0,87,0.00,,,0.00,meteohub,2013-07-06 09:58:00,
2013-07-06 05:03:00,67.6,63.7,29.96,SE,135,4.0,10.0,87,0.00,,,0.00,meteohub,2013-07-06 10:03:00,
2013-07-06 05:08:00,67.6,63.7,29.96,SE,135,6.0,10.0,87,0.00,,,0.00,meteohub,2013-07-06 10:08:00,
2013-07-06 05:13:00,67.6,63.7,29.96,SE,135,5.0,6.0,87,0.00,,,0.00,meteohub,2013-07-06 10:13:00,
2013-07-06 05:18:00,67.6,63.7,29.96,SE,135,4.0,7.0,87,0.00,,,0.00,meteohub,2013-07-06 10:18:00,
2013-07-06 05:23:00,67.5,63.5,29.96,SE,135,5.0,7.0,87,0.00,,,0.00,meteohub,2013-07-06 10:23:00,
2013-07-06 05:28:00,67.5,63.5,29.96,SE,135,6.0,7.0,87,0.00,,,0.00,meteohub,2013-07-06 10:28:00,
2013-07-06 05:33:00,67.5,63.5,29.96,SE,135,4.0,8.0,87,0.00,,,0.00,meteohub,2013-07-06 10:33:00,
2013-07-06 05:38:00,67.3,63.3,29.96,South,180,5.0,8.0,87,0.00,,,0.00,meteohub,2013-07-06 10:38:00,
2013-07-06 05:43:00,67.3,63.3,29.96,SE,135,5.0,7.0,87,0.00,,,0.00,meteohub,2013-07-06 10:43:00,
2013-07-06 05:49:00,67.1,63.1,29.96,South,180,3.0,6.0,87,0.00,,,0.00,meteohub,2013-07-06 10:49:00,
2013-07-06 05:54:00,67.1,63.5,29.96,SE,135,5.0,6.0,88,0.00,,,0.00,meteohub,2013-07-06 10:54:00,
2013-07-06 05:59:00,67.3,63.7,29.96,SE,135,8.0,8.0,88,0.00,,,0.00,meteohub,2013-07-06 10:59:00,
2013-07-06 06:04:00,67.3,63.7,29.96,SE,135,7.0,8.0,88,0.00,,,0.00,meteohub,2013-07-06 11:04:00,
2013-07-06 06:09:00,67.1,63.5,29.96,SE,135,6.0,8.0,88,0.00,,,0.00,meteohub,2013-07-06 11:09:00,
2013-07-06 06:14:00,66.9,63.5,29.96,SE,135,8.0,8.0,89,0.00,,,0.00,meteohub,2013-07-06 11:14:00,
2013-07-06 06:19:00,66.7,63.3,29.96,SE,135,7.0,8.0,89,0.00,,,0.00,meteohub,2013-07-06 11:19:00,
2013-07-06 06:24:00,66.7,63.3,29.96,SE,135,4.0,8.0,89,0.00,,,0.00,meteohub,2013-07-06 11:24:00,
2013-07-06 06:29:00,66.9,63.9,29.96,SE,135,7.0,8.0,90,0.00,,,0.00,meteohub,2013-07-06 11:29:00,
2013-07-06 06:34:00,66.9,63.5,29.96,SE,135,5.0,8.0,89,0.00,,,0.00,meteohub,2013-07-06 11:34:00,
2013-07-06 06:39:00,67.1,63.7,29.96,SE,135,7.0,7.0,89,0.00,,,0.00,meteohub,2013-07-06 11:39:00,
2013-07-06 06:44:00,67.1,63.7,29.96,SE,135,8.0,8.0,89,0.00,,,0.00,meteohub,2013-07-06 11:44:00,
2013-07-06 06:49:00,67.1,63.7,29.96,SE,135,6.0,9.0,89,0.00,,,0.00,meteohub,2013-07-06 11:49:00,
2013-07-06 06:54:00,67.3,63.9,29.96,South,180,5.0,9.0,89,0.00,,,0.00,meteohub,2013-07-06 11:54:00,
2013-07-06 06:59:00,67.3,63.9,29.96,SE,135,8.0,9.0,89,0.00,,,0.00,meteohub,2013-07-06 11:59:00,
2013-07-06 07:04:00,67.6,64.0,29.96,SE,135,7.0,8.0,88,0.00,,,0.00,meteohub,2013-07-06 12:04:00,
2013-07-06 07:09:00,67.8,64.2,29.96,South,180,6.0,8.0,88,0.00,,,0.00,meteohub,2013-07-06 12:09:00,
2013-07-06 07:14:00,68.2,64.2,29.96,South,180,6.0,8.0,87,0.00,,,0.00,meteohub,2013-07-06 12:14:00,
2013-07-06 07:20:00,68.4,64.4,29.96,South,180,7.0,8.0,87,0.00,,,0.00,meteohub,2013-07-06 12:20:00,
2013-07-06 07:25:00,68.7,64.4,29.96,SE,135,6.0,8.0,86,0.00,,,0.00,meteohub,2013-07-06 12:25:00,
2013-07-06 07:30:00,69.1,64.8,29.96,SE,135,8.0,8.0,86,0.00,,,0.00,meteohub,2013-07-06 12:30:00,
2013-07-06 07:35:00,69.1,64.8,29.96,SE,135,8.0,8.0,86,0.00,,,0.00,meteohub,2013-07-06 12:35:00,
2013-07-06 07:40:00,69.4,65.1,29.97,SE,135,8.0,8.0,86,0.00,,,0.00,meteohub,2013-07-06 12:40:00,
2013-07-06 07:45:00,69.4,65.1,29.97,SE,135,8.0,11.0,86,0.00,,,0.00,meteohub,2013-07-06 12:45:00,
2013-07-06 07:50:00,69.4,65.1,29.97,SE,135,8.0,11.0,86,0.00,,,0.00,meteohub,2013-07-06 12:50:00,
2013-07-06 07:55:00,69.6,65.3,29.97,South,180,8.0,11.0,86,0.00,,,0.00,meteohub,2013-07-06 12:55:00,
2013-07-06 08:00:00,69.8,65.1,29.97,SE,135,7.0,11.0,85,0.00,,,0.00,meteohub,2013-07-06 13:00:00,
2013-07-06 08:05:00,70.3,65.7,29.97,South,180,7.0,11.0,85,0.00,,,0.00,meteohub,2013-07-06 13:05:00,
2013-07-06 08:10:00,70.7,66.0,29.97,SW,225,6.0,8.0,85,0.00,,,0.00,meteohub,2013-07-06 13:10:00,
2013-07-06 08:15:00,71.2,66.2,29.96,SE,135,6.0,8.0,84,0.00,,,0.00,meteohub,2013-07-06 13:15:00,
2013-07-06 08:20:00,71.8,66.4,29.96,South,180,4.0,7.0,83,0.00,,,0.00,meteohub,2013-07-06 13:20:00,
2013-07-06 08:25:00,72.5,66.7,29.96,SE,135,4.0,6.0,82,0.00,,,0.00,meteohub,2013-07-06 13:25:00,
2013-07-06 08:30:00,72.7,66.9,29.96,SW,225,4.0,7.0,82,0.00,,,0.00,meteohub,2013-07-06 13:30:00,
2013-07-06 08:35:00,73.6,67.8,29.96,SW,225,6.0,7.0,82,0.00,,,0.00,meteohub,2013-07-06 13:35:00,
2013-07-06 08:40:00,73.6,67.1,29.96,SE,135,8.0,10.0,80,0.00,,,0.00,meteohub,2013-07-06 13:40:00,
2013-07-06 08:45:00,73.8,67.6,29.96,SE,135,10.0,10.0,81,0.00,,,0.00,meteohub,2013-07-06 13:45:00,
2013-07-06 08:51:00,73.9,67.8,29.96,SE,135,4.0,10.0,81,0.00,,,0.00,meteohub,2013-07-06 13:51:00,
2013-07-06 08:56:00,74.5,67.8,29.96,South,180,9.0,10.0,80,0.00,,,0.00,meteohub,2013-07-06 13:56:00,
2013-07-06 09:01:00,74.8,68.2,29.96,SE,135,6.0,10.0,80,0.00,,,0.00,meteohub,2013-07-06 14:01:00,
2013-07-06 09:06:00,75.0,68.4,29.96,SW,225,8.0,9.0,80,0.00,,,0.00,meteohub,2013-07-06 14:06:00,
2013-07-06 09:11:00,75.4,68.0,29.96,SE,135,8.0,9.0,78,0.00,,,0.00,meteohub,2013-07-06 14:11:00,
2013-07-06 09:16:00,75.6,68.2,29.96,SW,225,6.0,8.0,78,0.00,,,0.00,meteohub,2013-07-06 14:16:00,
2013-07-06 09:21:00,76.1,68.7,29.96,SW,225,11.0,11.0,78,0.00,,,0.00,meteohub,2013-07-06 14:21:00,
2013-07-06 09:26:00,76.3,68.9,29.95,SE,135,3.0,11.0,78,0.00,,,0.00,meteohub,2013-07-06 14:26:00,
2013-07-06 09:31:00,76.5,68.7,29.95,SE,135,5.0,11.0,77,0.00,,,0.00,meteohub,2013-07-06 14:31:00,
2013-07-06 09:36:00,76.6,68.5,29.96,South,180,8.0,11.0,76,0.00,,,0.00,meteohub,2013-07-06 14:36:00,
2013-07-06 09:41:00,76.8,68.7,29.95,East,90,3.0,8.0,76,0.00,,,0.00,meteohub,2013-07-06 14:41:00,
2013-07-06 09:46:00,77.2,68.7,29.95,SE,135,6.0,8.0,75,0.00,,,0.00,meteohub,2013-07-06 14:46:00,
2013-07-06 09:51:00,77.2,68.2,29.95,SE,135,6.0,8.0,74,0.00,,,0.00,meteohub,2013-07-06 14:51:00,
2013-07-06 09:56:00,77.7,68.4,29.95,South,180,8.0,8.0,73,0.00,,,0.00,meteohub,2013-07-06 14:56:00,
2013-07-06 10:01:00,78.3,69.3,29.94,SE,135,6.0,8.0,74,0.00,,,0.00,meteohub,2013-07-06 15:01:00,
2013-07-06 10:06:00,78.4,69.4,29.94,South,180,6.0,8.0,74,0.00,,,0.00,meteohub,2013-07-06 15:06:00,
2013-07-06 10:11:00,78.4,69.1,29.94,South,180,7.0,13.0,73,0.00,,,0.00,meteohub,2013-07-06 15:11:00,
2013-07-06 10:16:00,78.4,69.4,29.94,SE,135,8.0,13.0,74,0.00,,,0.00,meteohub,2013-07-06 15:16:00,
2013-07-06 10:22:00,78.6,69.3,29.94,SE,135,6.0,13.0,73,0.00,,,0.00,meteohub,2013-07-06 15:22:00,
2013-07-06 10:27:00,79.0,69.3,29.94,SE,135,4.0,9.0,72,0.00,,,0.00,meteohub,2013-07-06 15:27:00,
2013-07-06 10:32:00,79.3,69.4,29.94,SE,135,4.0,8.0,72,0.00,,,0.00,meteohub,2013-07-06 15:32:00,
2013-07-06 10:37:00,79.5,68.5,29.94,South,180,9.0,9.0,69,0.00,,,0.00,meteohub,2013-07-06 15:37:00,
2013-07-06 10:42:00,79.5,69.3,29.94,SE,135,8.0,9.0,71,0.00,,,0.00,meteohub,2013-07-06 15:42:00,
2013-07-06 10:47:00,79.5,69.3,29.94,SE,135,8.0,11.0,71,0.00,,,0.00,meteohub,2013-07-06 15:47:00,
2013-07-06 10:52:00,79.9,68.4,29.94,South,180,7.0,11.0,68,0.00,,,0.00,meteohub,2013-07-06 15:52:00,
2013-07-06 10:57:00,79.9,68.7,29.94,East,90,5.0,10.0,69,0.00,,,0.00,meteohub,2013-07-06 15:57:00,
2013-07-06 11:02:00,80.1,68.9,29.94,South,180,8.0,10.0,69,0.00,,,0.00,meteohub,2013-07-06 16:02:00,
2013-07-06 11:07:00,80.1,67.6,29.94,South,180,7.0,10.0,66,0.00,,,0.00,meteohub,2013-07-06 16:07:00,
2013-07-06 11:12:00,80.2,66.9,29.94,South,180,11.0,11.0,64,0.00,,,0.00,meteohub,2013-07-06 16:12:00,
2013-07-06 11:17:00,80.2,66.9,29.94,South,180,6.0,12.0,64,0.00,,,0.00,meteohub,2013-07-06 16:17:00,
2013-07-06 11:23:00,80.6,66.9,29.93,East,90,9.0,12.0,63,0.00,,,0.00,meteohub,2013-07-06 16:23:00,
2013-07-06 11:29:00,80.8,66.9,29.93,SW,225,5.0,13.0,63,0.00,,,0.00,meteohub,2013-07-06 16:29:00,
2013-07-06 11:34:00,81.5,67.6,29.93,South,180,10.0,13.0,63,0.00,,,0.00,meteohub,2013-07-06 16:34:00,
2013-07-06 11:40:00,81.0,66.7,29.93,East,90,8.0,13.0,62,0.00,,,0.00,meteohub,2013-07-06 16:40:00,
2013-07-06 11:45:00,81.3,67.1,29.93,SE,135,9.0,11.0,62,0.00,,,0.00,meteohub,2013-07-06 16:45:00,
2013-07-06 11:51:00,81.3,67.1,29.93,South,180,8.0,11.0,62,0.00,,,0.00,meteohub,2013-07-06 16:51:00,
2013-07-06 11:56:00,81.7,67.5,29.93,SE,135,7.0,11.0,62,0.00,,,0.00,meteohub,2013-07-06 16:56:00,
2013-07-06 12:02:00,81.7,67.5,29.93,SE,135,7.0,11.0,62,0.00,,,0.00,meteohub,2013-07-06 17:02:00,
2013-07-06 12:07:00,82.0,68.2,29.93,South,180,8.0,9.0,63,0.00,,,0.00,meteohub,2013-07-06 17:07:00,
2013-07-06 12:12:00,82.0,66.4,29.92,South,180,10.0,10.0,59,0.00,,,0.00,meteohub,2013-07-06 17:12:00,
2013-07-06 12:17:00,81.7,64.9,29.93,South,180,8.0,13.0,57,0.00,,,0.00,meteohub,2013-07-06 17:17:00,
2013-07-06 12:23:00,81.7,66.9,29.92,East,90,5.0,13.0,61,0.00,,,0.00,meteohub,2013-07-06 17:23:00,
2013-07-06 12:28:00,82.4,67.1,29.92,SE,135,4.0,13.0,60,0.00,,,0.00,meteohub,2013-07-06 17:28:00,
2013-07-06 12:34:00,82.4,67.1,29.91,SW,225,7.0,13.0,60,0.00,,,0.00,meteohub,2013-07-06 17:34:00,
2013-07-06 12:40:00,82.4,66.6,29.91,SE,135,8.0,13.0,59,0.00,,,0.00,meteohub,2013-07-06 17:40:00,
2013-07-06 12:47:00,82.4,67.1,29.91,ESE,113,8.0,14.0,60,0.00,,,0.00,meteohub,2013-07-06 17:47:00,
2013-07-06 12:52:00,82.6,67.8,29.91,South,180,7.0,14.0,61,0.00,,,0.00,meteohub,2013-07-06 17:52:00,
2013-07-06 12:57:00,82.4,67.6,29.91,SE,135,10.0,14.0,61,0.00,,,0.00,meteohub,2013-07-06 17:57:00,
2013-07-06 13:02:00,82.4,67.6,29.91,South,180,14.0,14.0,61,0.00,,,0.00,meteohub,2013-07-06 18:02:00,
2013-07-06 13:07:00,82.4,66.6,29.91,SW,225,10.0,14.0,59,0.00,,,0.00,meteohub,2013-07-06 18:07:00,
2013-07-06 13:12:00,82.8,68.4,29.91,East,90,9.0,14.0,62,0.00,,,0.00,meteohub,2013-07-06 18:12:00,
2013-07-06 13:18:00,82.0,67.6,29.91,SE,135,8.0,14.0,62,0.00,,,0.00,meteohub,2013-07-06 18:18:00,
2013-07-06 13:23:00,82.4,67.6,29.91,SE,135,9.0,11.0,61,0.00,,,0.00,meteohub,2013-07-06 18:23:00,
2013-07-06 13:28:00,82.8,67.5,29.91,South,180,9.0,11.0,60,0.00,,,0.00,meteohub,2013-07-06 18:28:00,
2013-07-06 13:34:00,82.2,67.5,29.91,East,90,10.0,12.0,61,0.00,,,0.00,meteohub,2013-07-06 18:34:00,
2013-07-06 13:39:00,82.6,66.7,29.91,SE,135,11.0,12.0,59,0.00,,,0.00,meteohub,2013-07-06 18:39:00,
2013-07-06 13:45:00,82.8,66.6,29.91,SE,135,11.0,12.0,58,0.00,,,0.00,meteohub,2013-07-06 18:45:00,
2013-07-06 13:50:00,82.9,68.2,29.90,SE,135,8.0,15.0,61,0.00,,,0.00,meteohub,2013-07-06 18:50:00,
2013-07-06 13:56:00,83.7,68.7,29.90,South,180,14.0,15.0,61,0.00,,,0.00,meteohub,2013-07-06 18:56:00,
2013-07-06 14:01:00,83.3,68.4,29.90,SE,135,7.0,14.0,61,0.00,,,0.00,meteohub,2013-07-06 19:01:00,
2013-07-06 14:06:00,83.5,69.1,29.90,South,180,6.0,14.0,62,0.00,,,0.00,meteohub,2013-07-06 19:06:00,
2013-07-06 14:12:00,84.0,67.6,29.89,SW,225,4.0,14.0,58,0.00,,,0.00,meteohub,2013-07-06 19:12:00,
2013-07-06 14:17:00,84.0,67.1,29.89,SW,225,8.0,11.0,57,0.00,,,0.00,meteohub,2013-07-06 19:17:00,
2013-07-06 14:23:00,83.7,67.3,29.90,SSW,203,7.0,13.0,58,0.00,,,0.00,meteohub,2013-07-06 19:23:00,
2013-07-06 14:28:00,84.0,68.2,29.89,East,90,11.0,13.0,59,0.00,,,0.00,meteohub,2013-07-06 19:28:00,
2013-07-06 14:34:00,84.2,66.7,29.90,SE,135,9.0,13.0,56,0.00,,,0.00,meteohub,2013-07-06 19:34:00,
2013-07-06 14:39:00,83.8,67.5,29.90,South,180,7.0,14.0,58,0.00,,,0.00,meteohub,2013-07-06 19:39:00,
2013-07-06 14:45:00,84.4,67.5,29.90,SE,135,8.0,14.0,57,0.00,,,0.00,meteohub,2013-07-06 19:45:00,
2013-07-06 14:51:00,84.4,66.9,29.90,South,180,9.0,12.0,56,0.00,,,0.00,meteohub,2013-07-06 19:51:00,
2013-07-06 14:57:00,84.0,67.1,29.90,SW,225,11.0,11.0,57,0.00,,,0.00,meteohub,2013-07-06 19:57:00,
2013-07-06 15:03:00,84.2,67.3,29.89,SE,135,11.0,11.0,57,0.00,,,0.00,meteohub,2013-07-06 20:03:00,
2013-07-06 15:11:00,83.8,66.9,29.89,South,180,6.0,14.0,57,0.00,,,0.00,meteohub,2013-07-06 20:11:00,
2013-07-06 15:16:00,84.0,67.6,29.89,South,180,11.0,14.0,58,0.00,,,0.00,meteohub,2013-07-06 20:16:00,
2013-07-06 15:21:00,83.7,66.7,29.89,SE,135,6.0,16.0,57,0.00,,,0.00,meteohub,2013-07-06 20:21:00,
2013-07-06 15:26:00,84.0,67.6,29.89,East,90,7.0,16.0,58,0.00,,,0.00,meteohub,2013-07-06 20:26:00,
2013-07-06 15:32:00,84.0,66.6,29.89,SW,225,8.0,16.0,56,0.00,,,0.00,meteohub,2013-07-06 20:32:00,
2013-07-06 15:37:00,83.7,66.7,29.89,South,180,8.0,13.0,57,0.00,,,0.00,meteohub,2013-07-06 20:37:00,
2013-07-06 15:42:00,84.2,67.3,29.88,SE,135,7.0,15.0,57,0.00,,,0.00,meteohub,2013-07-06 20:42:00,
2013-07-06 15:47:00,84.6,67.1,29.89,SE,135,8.0,15.0,56,0.00,,,0.00,meteohub,2013-07-06 20:47:00,
2013-07-06 15:53:00,84.4,66.4,29.89,SE,135,7.0,11.0,55,0.00,,,0.00,meteohub,2013-07-06 20:53:00,
2013-07-06 15:58:00,84.4,66.9,29.88,East,90,7.0,11.0,56,0.00,,,0.00,meteohub,2013-07-06 20:58:00,
2013-07-06 16:03:00,84.4,66.4,29.89,SE,135,7.0,11.0,55,0.00,,,0.00,meteohub,2013-07-06 21:03:00,
2013-07-06 16:09:00,84.6,67.6,29.88,South,180,9.0,11.0,57,0.00,,,0.00,meteohub,2013-07-06 21:09:00,
2013-07-06 16:15:00,84.4,66.9,29.88,South,180,8.0,11.0,56,0.00,,,0.00,meteohub,2013-07-06 21:15:00,
2013-07-06 16:20:00,84.2,66.7,29.88,SE,135,8.0,10.0,56,0.00,,,0.00,meteohub,2013-07-06 21:20:00,
2013-07-06 16:25:00,84.2,66.2,29.88,South,180,7.0,13.0,55,0.00,,,0.00,meteohub,2013-07-06 21:25:00,
2013-07-06 16:31:00,84.2,66.7,29.88,South,180,8.0,13.0,56,0.00,,,0.00,meteohub,2013-07-06 21:31:00,
2013-07-06 16:36:00,84.2,66.2,29.88,SE,135,8.0,12.0,55,0.00,,,0.00,meteohub,2013-07-06 21:36:00,
2013-07-06 16:42:00,84.4,66.4,29.88,SE,135,8.0,11.0,55,0.00,,,0.00,meteohub,2013-07-06 21:42:00,
2013-07-06 16:47:00,84.2,66.2,29.88,SE,135,6.0,11.0,55,0.00,,,0.00,meteohub,2013-07-06 21:47:00,
2013-07-06 16:52:00,84.2,66.2,29.88,SE,135,9.0,10.0,55,0.00,,,0.00,meteohub,2013-07-06 21:52:00,
2013-07-06 16:58:00,84.0,66.6,29.88,SE,135,11.0,11.0,56,0.00,,,0.00,meteohub,2013-07-06 21:58:00,
2013-07-06 17:04:00,84.0,67.1,29.87,SE,135,7.0,11.0,57,0.00,,,0.00,meteohub,2013-07-06 22:04:00,
2013-07-06 17:11:00,84.4,66.9,29.87,East,90,9.0,12.0,56,0.00,,,0.00,meteohub,2013-07-06 22:11:00,
2013-07-06 17:17:00,84.2,66.7,29.87,SE,135,11.0,12.0,56,0.00,,,0.00,meteohub,2013-07-06 22:17:00,
2013-07-06 17:22:00,84.0,67.1,29.87,SE,135,9.0,11.0,57,0.00,,,0.00,meteohub,2013-07-06 22:22:00,
2013-07-06 17:28:00,84.0,67.1,29.87,SE,135,8.0,11.0,57,0.00,,,0.00,meteohub,2013-07-06 22:28:00,
2013-07-06 17:33:00,84.0,67.1,29.86,SE,135,5.0,11.0,57,0.00,,,0.00,meteohub,2013-07-06 22:33:00,
2013-07-06 17:38:00,84.0,67.1,29.87,East,90,8.0,10.0,57,0.00,,,0.00,meteohub,2013-07-06 22:38:00,
2013-07-06 17:43:00,83.8,66.4,29.86,SE,135,8.0,10.0,56,0.00,,,0.00,meteohub,2013-07-06 22:43:00,
2013-07-06 17:49:00,83.7,66.4,29.86,East,90,7.0,11.0,56,0.00,,,0.00,meteohub,2013-07-06 22:49:00,
2013-07-06 17:55:00,83.5,66.2,29.86,South,180,8.0,11.0,56,0.00,,,0.00,meteohub,2013-07-06 22:55:00,
2013-07-06 18:00:00,83.5,66.2,29.86,SE,135,8.0,11.0,56,0.00,,,0.00,meteohub,2013-07-06 23:00:00,
2013-07-06 18:05:00,83.5,66.6,29.86,SE,135,6.0,11.0,57,0.00,,,0.00,meteohub,2013-07-06 23:05:00,
2013-07-06 18:11:00,83.5,66.6,29.86,SE,135,9.0,10.0,57,0.00,,,0.00,meteohub,2013-07-06 23:11:00,
2013-07-06 18:17:00,83.3,66.6,29.86,SE,135,8.0,10.0,57,0.00,,,0.00,meteohub,2013-07-06 23:17:00,
2013-07-06 18:25:00,83.3,66.6,29.86,SE,135,5.0,10.0,57,0.00,,,0.00,meteohub,2013-07-06 23:25:00,
2013-07-06 18:30:00,83.3,66.9,29.86,East,90,7.0,8.0,58,0.00,,,0.00,meteohub,2013-07-06 23:30:00,
2013-07-06 18:36:00,83.1,66.7,29.86,SE,135,6.0,8.0,58,0.00,,,0.00,meteohub,2013-07-06 23:36:00,
2013-07-06 18:41:00,82.8,66.6,29.87,SE,135,9.0,11.0,58,0.00,,,0.00,meteohub,2013-07-06 23:41:00,
2013-07-06 18:46:00,82.6,66.4,29.87,SE,135,6.0,11.0,58,0.00,,,0.00,meteohub,2013-07-06 23:46:00,
2013-07-06 18:51:00,82.8,66.6,29.87,SE,135,7.0,9.0,58,0.00,,,0.00,meteohub,2013-07-06 23:51:00,
2013-07-06 18:57:00,82.6,66.4,29.86,SE,135,6.0,9.0,58,0.00,,,0.00,meteohub,2013-07-06 23:57:00,
2013-07-06 19:02:00,82.4,66.2,29.86,East,90,7.0,8.0,58,0.00,,,0.00,meteohub,2013-07-07 00:02:00,
2013-07-06 19:08:00,82.0,67.3,29.86,SE,135,6.0,8.0,61,0.00,,,0.00,meteohub,2013-07-07 00:08:00,
2013-07-06 19:16:00,81.7,66.9,29.87,SE,135,5.0,8.0,61,0.00,,,0.00,meteohub,2013-07-07 00:16:00,
2013-07-06 19:22:00,81.7,67.5,29.87,East,90,7.0,8.0,62,0.00,,,0.00,meteohub,2013-07-07 00:22:00,
2013-07-06 19:27:00,81.5,67.6,29.87,East,90,3.0,7.0,63,0.00,,,0.00,meteohub,2013-07-07 00:27:00,
2013-07-06 19:32:00,81.3,67.5,29.87,East,90,4.0,7.0,63,0.00,,,0.00,meteohub,2013-07-07 00:32:00,
2013-07-06 19:37:00,81.1,67.8,29.87,SE,135,3.0,7.0,64,0.00,,,0.00,meteohub,2013-07-07 00:37:00,
2013-07-06 19:42:00,81.0,67.6,29.87,East,90,6.0,6.0,64,0.00,,,0.00,meteohub,2013-07-07 00:42:00,
2013-07-06 19:47:00,80.6,67.8,29.87,East,90,5.0,6.0,65,0.00,,,0.00,meteohub,2013-07-07 00:47:00,
2013-07-06 19:53:00,80.1,67.6,29.87,SE,135,4.0,7.0,66,0.00,,,0.00,meteohub,2013-07-07 00:53:00,
2013-07-06 19:59:00,79.9,68.0,29.87,South,180,5.0,7.0,67,0.00,,,0.00,meteohub,2013-07-07 00:59:00,
2013-07-06 20:05:00,79.2,67.6,29.88,SE,135,5.0,6.0,68,0.00,,,0.00,meteohub,2013-07-07 01:05:00,
2013-07-06 20:10:00,78.8,67.3,29.88,SE,135,4.0,5.0,68,0.00,,,0.00,meteohub,2013-07-07 01:10:00,
2013-07-06 20:16:00,78.6,68.0,29.88,East,90,4.0,5.0,70,0.00,,,0.00,meteohub,2013-07-07 01:16:00,
2013-07-06 20:21:00,78.4,67.8,29.88,SE,135,4.0,7.0,70,0.00,,,0.00,meteohub,2013-07-07 01:21:00,
2013-07-06 20:27:00,78.1,67.5,29.88,South,180,4.0,7.0,70,0.00,,,0.00,meteohub,2013-07-07 01:27:00,
2013-07-06 20:32:00,78.1,67.5,29.88,SE,135,4.0,7.0,70,0.00,,,0.00,meteohub,2013-07-07 01:32:00,
2013-07-06 20:37:00,77.9,67.3,29.88,SE,135,4.0,5.0,70,0.00,,,0.00,meteohub,2013-07-07 01:37:00,
2013-07-06 20:42:00,77.7,67.1,29.88,SE,135,5.0,5.0,70,0.00,,,0.00,meteohub,2013-07-07 01:42:00,
2013-07-06 20:47:00,77.5,66.9,29.88,SE,135,4.0,5.0,70,0.00,,,0.00,meteohub,2013-07-07 01:47:00,
2013-07-06 20:52:00,77.5,67.5,29.88,SE,135,5.0,5.0,71,0.00,,,0.00,meteohub,2013-07-07 01:52:00,
2013-07-06 20:57:00,77.5,67.5,29.88,SE,135,4.0,5.0,71,0.00,,,0.00,meteohub,2013-07-07 01:57:00,
2013-07-06 21:03:00,77.2,67.1,29.89,SE,135,4.0,5.0,71,0.00,,,0.00,meteohub,2013-07-07 02:03:00,
2013-07-06 21:08:00,77.2,67.5,29.89,SE,135,4.0,5.0,72,0.00,,,0.00,meteohub,2013-07-07 02:08:00,
2013-07-06 21:13:00,77.2,67.5,29.89,SE,135,3.0,5.0,72,0.00,,,0.00,meteohub,2013-07-07 02:13:00,
2013-07-06 21:18:00,77.0,67.3,29.89,East,90,4.0,4.0,72,0.00,,,0.00,meteohub,2013-07-07 02:18:00,
2013-07-06 21:24:00,76.8,67.8,29.90,SE,135,4.0,4.0,74,0.00,,,0.00,meteohub,2013-07-07 02:24:00,
2013-07-06 21:29:00,77.0,67.6,29.90,SE,135,4.0,4.0,73,0.00,,,0.00,meteohub,2013-07-07 02:29:00,
2013-07-06 21:34:00,76.8,67.8,29.90,SE,135,5.0,5.0,74,0.00,,,0.00,meteohub,2013-07-07 02:34:00,
2013-07-06 21:40:00,76.6,67.6,29.90,SE,135,6.0,6.0,74,0.00,,,0.00,meteohub,2013-07-07 02:40:00,
2013-07-06 21:45:00,76.5,68.0,29.90,SE,135,5.0,6.0,75,0.00,,,0.00,meteohub,2013-07-07 02:45:00,
2013-07-06 21:51:00,76.1,67.6,29.90,SE,135,6.0,6.0,75,0.00,,,0.00,meteohub,2013-07-07 02:51:00,
2013-07-06 21:57:00,75.9,67.5,29.90,SE,135,7.0,8.0,75,0.00,,,0.00,meteohub,2013-07-07 02:57:00,
2013-07-06 22:02:00,75.7,67.3,29.91,SE,135,8.0,8.0,75,0.00,,,0.00,meteohub,2013-07-07 03:02:00,
2013-07-06 22:07:00,75.6,67.5,29.91,SE,135,6.0,8.0,76,0.00,,,0.00,meteohub,2013-07-07 03:07:00,
2013-07-06 22:14:00,75.2,67.1,29.90,SE,135,5.0,8.0,76,0.00,,,0.00,meteohub,2013-07-07 03:14:00,
2013-07-06 22:19:00,74.8,67.5,29.91,SE,135,4.0,8.0,78,0.00,,,0.00,meteohub,2013-07-07 03:19:00,
2013-07-06 22:24:00,74.5,67.1,29.91,SE,135,6.0,7.0,78,0.00,,,0.00,meteohub,2013-07-07 03:24:00,
2013-07-06 22:30:00,74.1,67.1,29.91,ESE,113,5.0,7.0,79,0.00,,,0.00,meteohub,2013-07-07 03:30:00,
2013-07-06 22:36:00,73.9,67.5,29.91,East,90,6.0,6.0,80,0.00,,,0.00,meteohub,2013-07-07 03:36:00,
2013-07-06 22:42:00,73.9,67.8,29.91,East,90,5.0,6.0,81,0.00,,,0.00,meteohub,2013-07-07 03:42:00,
2013-07-06 22:48:00,73.8,67.6,29.91,SE,135,6.0,6.0,81,0.00,,,0.00,meteohub,2013-07-07 03:48:00,
2013-07-06 22:53:00,73.8,67.6,29.90,East,90,6.0,6.0,81,0.00,,,0.00,meteohub,2013-07-07 03:53:00,
2013-07-06 22:58:00,73.4,67.6,29.91,SE,135,6.0,6.0,82,0.00,,,0.00,meteohub,2013-07-07 03:58:00,
2013-07-06 23:01:00,73.2,67.5,29.91,East,90,6.0,6.0,82,0.00,,,0.00,meteohub,2013-07-07 04:01:00,
2013-07-06 23:02:00,73.2,67.5,29.91,East,90,6.0,6.0,82,0.00,,,0.00,meteohub,2013-07-07 04:02:00,
2013-07-06 23:04:00,73.2,67.5,29.91,East,90,5.0,6.0,82,0.00,,,0.00,meteohub,2013-07-07 04:04:00,
2013-07-06 23:05:00,73.2,67.5,29.91,East,90,6.0,7.0,82,0.00,,,0.00,meteohub,2013-07-07 04:05:00,
2013-07-06 23:10:00,73.0,67.3,29.91,South,180,7.0,7.0,82,0.00,,,0.00,meteohub,2013-07-07 04:10:00,
2013-07-06 23:15:00,73.0,67.6,29.91,SE,135,6.0,7.0,83,0.00,,,0.00,meteohub,2013-07-07 04:15:00,
2013-07-06 23:16:00,73.0,67.6,29.91,SE,135,5.0,7.0,83,0.00,,,0.00,meteohub,2013-07-07 04:16:00,
2013-07-06 23:22:00,73.0,67.6,29.91,SE,135,6.0,7.0,83,0.00,,,0.00,meteohub,2013-07-07 04:22:00,
2013-07-06 23:27:00,73.0,67.6,29.91,SE,135,7.0,7.0,83,0.00,,,0.00,meteohub,2013-07-07 04:27:00,
2013-07-06 23:32:00,72.9,67.5,29.91,SE,135,4.0,8.0,83,0.00,,,0.00,meteohub,2013-07-07 04:32:00,
2013-07-06 23:37:00,72.7,67.3,29.91,SE,135,6.0,8.0,83,0.00,,,0.00,meteohub,2013-07-07 04:37:00,
2013-07-06 23:42:00,72.5,67.5,29.91,SE,135,5.0,8.0,84,0.00,,,0.00,meteohub,2013-07-07 04:42:00,
2013-07-06 23:47:00,72.5,67.5,29.91,East,90,5.0,6.0,84,0.00,,,0.00,meteohub,2013-07-07 04:47:00,
2013-07-06 23:52:00,72.3,67.3,29.91,SE,135,5.0,7.0,84,0.00,,,0.00,meteohub,2013-07-07 04:52:00,
2013-07-06 23:57:00,72.3,67.3,29.91,East,90,5.0,7.0,84,0.00,,,0.00,meteohub,2013-07-07 04:57:00,